This is the latest recevied weather packets stored in our database for station/object KB4RFE. If no packets are shown the sender has not sent any weather packets the latest 10 day(s).
| Time | Temp. | Humidity | Pressure | Rain* | Wind** | Luminosity | Snow |
|---|---|---|---|---|---|---|---|
| 1788109138 | 28.89° C | 81% | 1023.7 hPa | 0 mm | - | 425 W/m² | - |
| 1788108834 | 28.89° C | 81% | 1023.9 hPa | 0 mm | - | 349 W/m² | - |
| 1788108530 | 28.89° C | 82% | 1024 hPa | 0 mm | - | 322 W/m² | - |
| 1788108226 | 28.89° C | 81% | 1024.1 hPa | 0 mm | - | 311 W/m² | - |
| 1788107922 | 28.89° C | 82% | 1024.3 hPa | 0 mm | - | 308 W/m² | - |
| 1788107618 | 28.89° C | 83% | 1024.6 hPa | 0 mm | - | 302 W/m² | - |
| 1788107317 | 28.33° C | 84% | 1024.6 hPa | 0 mm | - | 288 W/m² | - |
| 1788107014 | 28.33° C | 83% | 1024.6 hPa | 0 mm | - | 259 W/m² | - |
| 1788106714 | 28.33° C | 83% | 1024.5 hPa | 0 mm | - | 217 W/m² | - |
| 1788106413 | 28.33° C | 84% | 1024.4 hPa | 0 mm | - | 184 W/m² | - |
| 1788106109 | 28.33° C | 85% | 1024.3 hPa | 0 mm | - | 166 W/m² | - |
| 1788105804 | 28.33° C | 85% | 1024.3 hPa | 0 mm | - | 162 W/m² | - |
| 1788105500 | 27.78° C | 84% | 1024.4 hPa | 0 mm | - | 164 W/m² | - |
| 1788105196 | 27.78° C | 83% | 1024.6 hPa | 0 mm | - | 168 W/m² | - |
| 1788104896 | 28.33° C | 83% | 1024.4 hPa | 0 mm | - | 173 W/m² | - |
| 1788104592 | 27.78° C | 82% | 1024.6 hPa | 0 mm | - | 174 W/m² | - |
| 1788104288 | 28.33° C | 83% | 1024.6 hPa | 0 mm | - | 174 W/m² | - |
| 1788103984 | 28.33° C | 82% | 1024.6 hPa | 0 mm | - | 175 W/m² | - |
| 1788103683 | 28.33° C | 82% | 1024.8 hPa | 0 mm | - | 175 W/m² | - |
| 1788103377 | 28.33° C | 82% | 1025 hPa | 0 mm | - | 180 W/m² | - |
| 1788103076 | 28.33° C | 82% | 1024.9 hPa | 0 mm | - | 188 W/m² | - |
| 1788102775 | 28.89° C | 81% | 1024.9 hPa | 0 mm | - | 189 W/m² | - |
| 1788102471 | 28.89° C | 81% | 1024.7 hPa | 0 mm | - | 187 W/m² | - |
| 1788102171 | 29.44° C | 78% | 1024.8 hPa | 0 mm | - | 217 W/m² | - |
| 1788101866 | 30° C | 77% | 1024.9 hPa | 0 mm | - | 366 W/m² | - |
* Rain latest hour (hover to see other rain measurements)
** Current wind speed in m/s (hover to see current wind gust speed)